This is the latest recevied weather packets stored in our database for station/object EA1HTW-1. If no packets are shown the sender has not sent any weather packets the latest 10 day(s).
| Time | Temp. | Humidity | Pressure | Rain* | Wind** | Luminosity | Snow |
|---|---|---|---|---|---|---|---|
| 1787385433 | 60° F | 82% | 738.9 mmHg | 0 in | - | - | - |
| 1787384835 | 58° F | 83% | 739 mmHg | 0 in | - | - | - |
| 1787384235 | 57° F | 85% | 738.8 mmHg | 0 in | - | - | - |
| 1787383635 | 56° F | 91% | 738.7 mmHg | 0 in | - | - | - |
| 1787382435 | 52° F | 95% | 738.8 mmHg | 0 in | - | - | - |
| 1787381835 | 52° F | 94% | 738.5 mmHg | 0 in | - | - | - |
| 1787381236 | 51° F | 95% | 738.8 mmHg | 0 in | - | - | - |
| 1787380634 | 50° F | 94% | 738.8 mmHg | 0 in | - | - | - |
| 1787380037 | 51° F | 95% | 738.7 mmHg | 0 in | - | - | - |
| 1787379436 | 49° F | 94% | 738.8 mmHg | 0 in | - | - | - |
| 1787378836 | 49° F | 94% | 738.8 mmHg | 0 in | - | - | - |
| 1787378236 | 50° F | 94% | 738.7 mmHg | 0 in | - | - | - |
| 1787377636 | 50° F | 94% | 738.8 mmHg | 0 in | - | - | - |
| 1787377036 | 51° F | 93% | 738.9 mmHg | 0 in | - | - | - |
| 1787376436 | 51° F | 94% | 738.7 mmHg | 0 in | - | - | - |
| 1787375235 | 52° F | 94% | 738.8 mmHg | 0 in | - | - | - |
| 1787374036 | 50° F | 93% | 738.9 mmHg | 0 in | - | - | - |
| 1787373436 | 51° F | 93% | 738.9 mmHg | 0 in | - | - | - |
| 1787372835 | 52° F | 93% | 738.7 mmHg | 0 in | - | - | - |
| 1787371635 | 52° F | 92% | 738.7 mmHg | 0 in | - | - | - |
| 1787371035 | 52° F | 92% | 738.8 mmHg | 0 in | - | - | - |
| 1787370437 | 52° F | 92% | 738.8 mmHg | 0 in | - | - | - |
| 1787369836 | 53° F | 92% | 739 mmHg | 0 in | - | - | - |
| 1787369235 | 53° F | 92% | 739 mmHg | 0 in | - | - | - |
| 1787367434 | 53° F | 91% | 739.3 mmHg | 0 in | - | - | - |
* Rain latest hour (hover to see other rain measurements)
** Current wind speed in m/s (hover to see current wind gust speed)